This demonstration page uses our WeatherBlox Daily Observations layout. Learn more.

Left ArrowRight Arrow

38.83388, -104.82136

Hourly Observations for January 31, 2015

Temp ( °F °C ) Dew Point ( °F °C ) Humidity (%) Winds ( mph kmh ) Pressure ( in mb ) Visibility ( mi km ) Precip ( " mm )
12:56 am 00:56 Cloudy 35 1.5 29 -1.9 78 78 NNW 7 11 29.68 1005 10 16 N/A
1:56 am 01:56 Cloudy 35 1.7 27 -2.9 72 72 N 6 9 29.65 1004 10 16 N/A
2:56 am 02:56 Cloudy 35 1.4 27 -2.6 75 75 SE 1 2 29.63 1003 10 16 N/A
3:56 am 03:56 Cloudy 33 0.8 28 -2.1 81 81 Calm 29.64 1004 10 16 N/A
4:56 am 04:56 Mostly Cloudy 33 0.4 25 -3.7 74 74 NW 6 9 29.61 1003 10 16 N/A
5:56 am 05:56 Mostly Cloudy 33 0.4 27 -2.8 79 79 N 2 4 29.59 1002 10 16 N/A
6:56 am 06:56 Partly Cloudy 32 0 28 -2.3 85 85 S 8 13 29.62 1003 10 16 N/A
7:36 am 07:36 Mostly Cloudy 32 0 27 -3 80 80 W 2 4 29.59 1002 10 16 N/A
7:56 am 07:56 Mostly Cloudy 32 -0.2 27 -3 82 82 NNW 6 9 29.59 1002 10 16 N/A
8:56 am 08:56 Cloudy 32 0 26 -3.1 80 80 NNW 3 6 29.59 1002 10 16 N/A
9:56 am 09:56 Mostly Cloudy 32 0.2 25 -3.9 74 74 N 6 9 29.57 1002 10 16 N/A
10:01 am 10:01 Mostly Cloudy 32 0 25 -4 75 75 N 7 11 29.59 1002 10 16 N/A
10:56 am 10:56 Mostly Cloudy 33 0.8 26 -3.3 74 74 N 2 4 29.54 1001 10 16 N/A
11:45 am 11:45 Mostly Cloudy with Light Rain 34 1 28 -2 81 81 ENE 2 4 29.56 1001 10 16 N/A
11:56 am 11:56 Mostly Cloudy with Light Rain/Snow 32 0.1 28 -2.2 85 85 NE 3 6 29.54 1000 4 6 N/A
12:13 pm 12:13 Cloudy with Light Rain/Snow 32 0 28 -2 87 87 E 2 4 29.56 1001 4 6 N/A
12:33 pm 12:33 Cloudy with Light Rain/Snow 32 0 30 -1 93 93 NE 2 4 29.56 1001 2 3 N/A
12:38 pm 12:38 Cloudy with Light Rain/Snow 32 0 30 -1 93 93 E 1 2 29.56 1001 2 3 N/A
12:42 pm 12:42 Cloudy with Light Rain/Snow 32 0 30 -1 93 93 NE 2 4 29.56 1001 2 3 N/A
12:52 pm 12:52 Cloudy with Light Rain/Snow 32 0 30 -1 93 93 NNE 3 6 29.56 1001 3 5 N/A
12:56 pm 12:56 Cloudy with Light Rain/Snow 31 -0.4 31 -0.8 97 97 NE 5 7 29.51 999 1 2 N/A
1:11 pm 13:11 Mostly Cloudy with Light Snow 32 0 32 0 100 100 N 5 7 29.50 999 1 2 N/A
1:16 pm 13:16 Mostly Cloudy with Light Snow 32 0 30 -1 93 93 N 5 7 29.50 999 1 2 N/A
1:21 pm 13:21 Mostly Cloudy with Light Snow 32 0 30 -1 93 93 NNE 5 7 29.50 999 1 2 N/A
1:36 pm 13:36 Cloudy with Light Snow 32 0 30 -1 93 93 N 3 6 29.50 999 3 5 N/A
1:51 pm 13:51 Cloudy with Light Snow 32 0 30 -1 93 93 N 5 7 29.50 999 5 8 N/A
1:56 pm 13:56 Cloudy with Light Snow 31 -0.4 30 -0.9 96 96 N 6 9 29.49 999 2 2 0.01 0.25
2:00 pm 14:00 Cloudy with Light Snow 32 0 30 -1 93 93 NNE 5 7 29.50 999 1 2 N/A
2:15 pm 14:15 Cloudy with Light Snow 32 0 32 0 100 100 N 5 7 29.50 999 1 2 N/A
2:18 pm 14:18 Cloudy with Light Snow 32 0 30 -1 93 93 N 5 7 29.50 999 3 5 N/A
2:33 pm 14:33 Mostly Cloudy with Light Snow 32 0 32 0 100 100 NNE 5 7 29.50 999 3 5 N/A
2:52 pm 14:52 Mostly Cloudy with Light Snow 32 0 30 -1 93 93 N 6 9 29.50 999 3 5 N/A
2:56 pm 14:56 Mostly Cloudy with Light Snow 32 -0.2 31 -0.7 96 96 N 5 7 29.49 999 4 6 0.01 0.25
3:36 pm 15:36 Cloudy with Mist and Fog 32 0 30 -1 93 93 N 7 11 29.50 999 5 8 N/A
3:46 pm 15:46 Cloudy with Mist and Fog 32 0 32 0 100 100 N 7 11 29.50 999 4 6 N/A
3:56 pm 15:56 Cloudy with Mist and Fog 32 0 31 -0.4 97 97 N 6 9 29.51 999 4 6 N/A
4:11 pm 16:11 Cloudy with Mist and Fog 32 0 32 0 100 100 N 6 9 29.50 999 3 5 N/A
4:16 pm 16:16 Cloudy with Mist and Fog 32 0 32 0 100 100 N 5 7 29.50 999 3 4 N/A
4:20 pm 16:20 Cloudy with Light Wintry Mix 32 0 32 0 100 100 N 5 7 29.50 999 3 4 N/A
4:42 pm 16:42 Cloudy with Light Snow Showers 32 0 30 -1 93 93 N 3 6 29.50 999 6 10 N/A
4:47 pm 16:47 Cloudy with Light Snow Showers 32 0 30 -1 93 93 NNW 6 9 29.50 999 4 6 N/A
4:56 pm 16:56 Cloudy with Light Snow Showers 32 0 31 -0.7 95 95 N 6 9 29.51 999 5 8 0.00 0.00
5:11 pm 17:11 Cloudy with Mist and Fog 32 0 30 -1 93 93 N 5 7 29.50 999 5 8 N/A
5:16 pm 17:16 Cloudy with Mist and Fog 32 0 30 -1 93 93 N 5 7 29.50 999 5 8 N/A
5:31 pm 17:31 Cloudy with Mist and Fog 32 0 30 -1 93 93 N 6 9 29.50 999 3 4 N/A
5:56 pm 17:56 Mostly Cloudy with Mist and Fog 31 -0.6 31 -0.6 100 100 NNW 8 13 29.53 1000 7 11 N/A
6:36 pm 18:36 Cloudy 30 -1 30 -1 100 100 NNW 5 7 29.59 1002 8 13 N/A
6:46 pm 18:46 Cloudy 30 -1 28 -2 93 93 N 5 7 29.59 1002 7 11 N/A
6:56 pm 18:56 Mostly Cloudy 31 -0.8 29 -1.7 94 94 WNW 7 11 29.55 1001 7 11 N/A
7:01 pm 19:01 Mostly Cloudy 30 -1 30 -1 100 100 WNW 2 4 29.59 1002 8 13 N/A
7:56 pm 19:56 Mostly Cloudy 35 1.8 29 -1.5 79 79 NNW 12 19 29.53 1000 10 16 N/A
8:56 pm 20:56 Clear 33 0.8 29 -1.8 83 83 NW 8 13 29.54 1000 10 16 N/A
9:56 pm 21:56 Clear 32 0.2 29 -1.9 86 86 S 5 7 29.57 1001 10 16 N/A
10:41 pm 22:41 Mostly Cloudy 32 0 28 -2 87 87 S 5 7 29.59 1002 10 16 N/A
10:56 pm 22:56 Mostly Cloudy 32 0.1 29 -1.6 88 88 SE 2 4 29.59 1002 10 16 N/A
11:01 pm 23:01 Mostly Cloudy 32 0 28 -2 87 87 N 5 7 29.59 1002 10 16 N/A
11:06 pm 23:06 Mostly Cloudy 32 0 28 -2 87 87 NNW 7 11 29.59 1002 10 16 N/A
11:51 pm 23:51 Mostly Cloudy 30 -1 27 -3 86 86 N 8 13 29.65 1004 10 16 N/A
11:56 pm 23:56 Mostly Cloudy 31 -0.8 27 -2.7 87 87 NNW 8 13 29.62 1003 10 16 N/A

Powered by AerisWeather